| time (UTC) | temp F | wind direction | speed MPH | gust MPH | rain 1hr in | rain 24hr in | rain mn in | humidity % | barometer mb |
| 20260901161044 | 72 | 323 | 1.0 | 7.0 | 0.00 | 0.00 | 0.00 | 47 | 1009.3 |
| 20260901160544 | 71 | 312 | 1.0 | 6.0 | 0.00 | 0.00 | 0.00 | 47 | 1009.2 |
| 20260901160042 | 70 | 290 | 1.0 | 6.0 | 0.00 | 0.00 | 0.00 | 48 | 1009.2 |
| 20260901155542 | 70 | 335 | 2.0 | 8.0 | 0.00 | 0.00 | 0.00 | 49 | 1009.2 |
| 20260901155042 | 70 | 324 | 4.0 | 8.0 | 0.00 | 0.00 | 0.00 | 48 | 1009.2 |
| 20260901154553 | 70 | 354 | 2.0 | 8.0 | 0.00 | 0.00 | 0.00 | 48 | 1009.1 |
| 20260901154045 | 70 | 295 | 0.0 | 4.0 | 0.00 | 0.00 | 0.00 | 49 | 1009.0 |
| 20260901153541 | 69 | 291 | 1.0 | 6.0 | 0.00 | 0.00 | 0.00 | 49 | 1008.9 |
| 20260901153049 | 69 | 339 | 3.0 | 6.0 | 0.00 | 0.00 | 0.00 | 49 | 1008.9 |
| 20260901152542 | 68 | 338 | 1.0 | 3.0 | 0.00 | 0.00 | 0.00 | 48 | 1009.0 |
| 20260901152040 | 68 | 323 | 1.0 | 3.0 | 0.00 | 0.00 | 0.00 | 48 | 1009.0 |
| 20260901151541 | 68 | 293 | 0.0 | 2.0 | 0.00 | 0.00 | 0.00 | 48 | 1009.0 |
| 20260901151040 | 68 | 313 | 0.0 | 4.0 | 0.00 | 0.00 | 0.00 | 49 | 1009.0 |
| 20260901150539 | 67 | 263 | 1.0 | 4.0 | 0.00 | 0.00 | 0.00 | 48 | 1009.0 |
| 20260901150042 | 67 | 311 | 1.0 | 5.0 | 0.00 | 0.00 | 0.00 | 49 | 1009.1 |
| 20260901145538 | 67 | 1 | 1.0 | 5.0 | 0.00 | 0.00 | 0.00 | 49 | 1008.9 |
| 20260901145038 | 67 | 143 | 2.0 | 5.0 | 0.00 | 0.00 | 0.00 | 49 | 1009.1 |
| 20260901144542 | 66 | 168 | 1.0 | 4.0 | 0.00 | 0.00 | 0.00 | 50 | 1008.9 |
| 20260901144037 | 66 | 151 | 1.0 | 5.0 | 0.00 | 0.00 | 0.00 | 49 | 1008.7 |
| 20260901143537 | 66 | 301 | 0.0 | 5.0 | 0.00 | 0.00 | 0.00 | 48 | 1008.8 |
| 20260901143045 | 66 | 129 | 2.0 | 4.0 | 0.00 | 0.00 | 0.00 | 47 | 1008.8 |
| 20260901142536 | 66 | 312 | 1.0 | 4.0 | 0.00 | 0.00 | 0.00 | 45 | 1008.7 |
| 20260901142036 | 66 | 155 | 0.0 | 6.0 | 0.00 | 0.00 | 0.00 | 46 | 1008.7 |
| 20260901141546 | 66 | 173 | 1.0 | 6.0 | 0.00 | 0.00 | 0.00 | 44 | 1008.7 |
| 20260901141035 | 66 | 322 | 1.0 | 6.0 | 0.00 | 0.00 | 0.00 | 43 | 1008.7 |
| 20260901140535 | 67 | 312 | 3.0 | 6.0 | 0.00 | 0.00 | 0.00 | 42 | 1008.6 |
| 20260901140035 | 67 | 133 | 1.0 | 4.0 | 0.00 | 0.00 | 0.00 | 43 | 1008.6 |
| 20260901135537 | 67 | 61 | 2.0 | 4.0 | 0.00 | 0.00 | 0.00 | 43 | 1008.5 |
| 20260901135035 | 68 | 325 | 1.0 | 8.0 | 0.00 | 0.00 | 0.00 | 42 | 1008.5 |
| 20260901134535 | 68 | 88 | 0.0 | 8.0 | 0.00 | 0.00 | 0.00 | 42 | 1008.4 |
| 20260901134034 | 68 | 323 | 0.0 | 4.0 | 0.00 | 0.00 | 0.00 | 41 | 1008.5 |
| 20260901133536 | 69 | 278 | 1.0 | 4.0 | 0.00 | 0.00 | 0.00 | 40 | 1008.4 |
| 20260901133035 | 70 | 309 | 1.0 | 7.0 | 0.00 | 0.00 | 0.00 | 38 | 1008.4 |
| 20260901132538 | 72 | 159 | 2.0 | 7.0 | 0.00 | 0.00 | 0.00 | 36 | 1008.4 |
| 20260901132034 | 76 | 306 | 1.0 | 7.0 | 0.00 | 0.00 | 0.00 | 38 | 1008.4 |
| 20260901131532 | 76 | 135 | 3.0 | 8.0 | 0.00 | 0.00 | 0.00 | 37 | 1008.3 |
| 20260901131033 | 76 | 135 | 3.0 | 8.0 | 0.00 | 0.00 | 0.00 | 37 | 1008.3 |
| 20260901130532 | 76 | 122 | 2.0 | 8.0 | 0.00 | 0.00 | 0.00 | 37 | 1008.2 |
| 20260901130032 | 76 | 51 | 1.0 | 8.0 | 0.00 | 0.00 | 0.00 | 37 | 1008.1 |
| 20260901125532 | 76 | 141 | 2.0 | 7.0 | 0.00 | 0.00 | 0.00 | 37 | 1008.0 |
| 20260901125032 | 76 | 129 | 4.0 | 7.0 | 0.00 | 0.00 | 0.00 | 37 | 1007.9 |
| 20260901124532 | 75 | 134 | 2.0 | 9.0 | 0.00 | 0.00 | 0.00 | 37 | 1007.9 |
| 20260901124031 | 75 | 102 | 2.0 | 9.0 | 0.00 | 0.00 | 0.00 | 37 | 1007.9 |
| 20260901123531 | 75 | 47 | 1.0 | 4.0 | 0.00 | 0.00 | 0.00 | 37 | 1007.9 |
| 20260901123032 | 76 | 141 | 1.0 | 5.0 | 0.00 | 0.00 | 0.00 | 37 | 1007.8 |
| 20260901122531 | 76 | 142 | 2.0 | 6.0 | 0.00 | 0.00 | 0.00 | 36 | 1007.9 |
| 20260901122030 | 76 | 141 | 2.0 | 8.0 | 0.00 | 0.00 | 0.00 | 36 | 1008.0 |
| 20260901121532 | 77 | 80 | 3.0 | 11.0 | 0.00 | 0.00 | 0.00 | 35 | 1007.9 |
| 20260901121029 | 77 | 148 | 4.0 | 11.0 | 0.00 | 0.00 | 0.00 | 35 | 1007.7 |
| 20260901120529 | 77 | 108 | 4.0 | 10.0 | 0.00 | 0.00 | 0.00 | 35 | 1007.6 |
| 20260901120031 | 77 | 88 | 4.0 | 10.0 | 0.00 | 0.00 | 0.00 | 35 | 1007.5 |
| 20260901115532 | 77 | 173 | 2.0 | 9.0 | 0.00 | 0.00 | 0.00 | 35 | 1007.5 |
| 20260901115029 | 77 | 86 | 3.0 | 12.0 | 0.00 | 0.00 | 0.00 | 35 | 1007.6 |
| 20260901114529 | 77 | 105 | 5.0 | 12.0 | 0.00 | 0.00 | 0.00 | 34 | 1007.4 |
| 20260901114028 | 77 | 291 | 3.0 | 9.0 | 0.00 | 0.00 | 0.00 | 34 | 1007.3 |
| 20260901113529 | 77 | 56 | 3.0 | 11.0 | 0.00 | 0.00 | 0.00 | 34 | 1007.3 |
| 20260901113028 | 77 | 90 | 4.0 | 11.0 | 0.00 | 0.00 | 0.00 | 33 | 1007.2 |
| 20260901112527 | 77 | 146 | 4.0 | 12.0 | 0.00 | 0.00 | 0.00 | 33 | 1007.1 |
| 20260901112026 | 78 | 114 | 7.0 | 12.0 | 0.00 | 0.00 | 0.00 | 32 | 1007.0 |
| 20260901111524 | 78 | 144 | 6.0 | 14.0 | 0.00 | 0.00 | 0.00 | 32 | 1006.7 |
| 20260901111022 | 78 | 129 | 8.0 | 14.0 | 0.00 | 0.00 | 0.00 | 31 | 1006.8 |
| 20260901110521 | 78 | 138 | 6.0 | 14.0 | 0.00 | 0.00 | 0.00 | 31 | 1006.6 |
| 20260901110023 | 78 | 135 | 6.0 | 15.0 | 0.00 | 0.00 | 0.00 | 31 | 1006.7 |
| 20260901105519 | 77 | 115 | 7.0 | 15.0 | 0.00 | 0.00 | 0.00 | 30 | 1006.6 |
| 20260901105020 | 77 | 129 | 7.0 | 17.0 | 0.00 | 0.00 | 0.00 | 30 | 1006.4 |
| 20260901104518 | 77 | 93 | 6.0 | 17.0 | 0.00 | 0.00 | 0.00 | 30 | 1006.6 |
| 20260901104020 | 77 | 46 | 8.0 | 17.0 | 0.00 | 0.00 | 0.00 | 30 | 1006.6 |
| 20260901103517 | 77 | 315 | 5.0 | 16.0 | 0.00 | 0.00 | 0.00 | 30 | 1006.5 |
| 20260901103017 | 77 | 21 | 6.0 | 17.0 | 0.00 | 0.00 | 0.00 | 30 | 1006.6 |
| 20260901102517 | 77 | 89 | 7.0 | 17.0 | 0.00 | 0.00 | 0.00 | 30 | 1006.6 |
| 20260901102016 | 77 | 120 | 5.0 | 13.0 | 0.00 | 0.00 | 0.00 | 30 | 1006.6 |
| 20260901101515 | 77 | 134 | 5.0 | 14.0 | 0.00 | 0.00 | 0.00 | 30 | 1006.9 |
| 20260901101018 | 77 | 101 | 6.0 | 14.0 | 0.00 | 0.00 | 0.00 | 29 | 1006.8 |
| 20260901100516 | 77 | 88 | 6.0 | 14.0 | 0.00 | 0.00 | 0.00 | 28 | 1006.9 |
| 20260901100013 | 78 | 66 | 6.0 | 13.0 | 0.00 | 0.00 | 0.00 | 28 | 1007.0 |
| 20260901095513 | 77 | 255 | 6.0 | 13.0 | 0.00 | 0.00 | 0.00 | 28 | 1007.2 |
| 20260901095012 | 77 | 59 | 5.0 | 15.0 | 0.00 | 0.00 | 0.00 | 29 | 1007.2 |
| 20260901094511 | 77 | 133 | 6.0 | 9.0 | 0.00 | 0.00 | 0.00 | 28 | 1007.2 |
| 20260901094010 | 77 | 91 | 4.0 | 9.0 | 0.00 | 0.00 | 0.00 | 28 | 1007.3 |
| 20260901093508 | 76 | 211 | 3.0 | 9.0 | 0.00 | 0.00 | 0.00 | 29 | 1007.3 |
| 20260901093006 | 75 | 124 | 4.0 | 10.0 | 0.00 | 0.00 | 0.00 | 29 | 1007.5 |
| 20260901092505 | 74 | 143 | 3.0 | 7.0 | 0.00 | 0.00 | 0.00 | 30 | 1007.3 |
| 20260901092004 | 72 | 93 | 2.0 | 5.0 | 0.00 | 0.00 | 0.00 | 31 | 1007.5 |
| 20260901091503 | 72 | 86 | 2.0 | 5.0 | 0.00 | 0.00 | 0.00 | 30 | 1007.6 |
| 20260901091002 | 72 | 68 | 2.0 | 5.0 | 0.00 | 0.00 | 0.00 | 30 | 1007.7 |
| 20260901090501 | 72 | 105 | 3.0 | 5.0 | 0.00 | 0.00 | 0.00 | 29 | 1007.7 |
| 20260901090006 | 72 | 98 | 3.0 | 5.0 | 0.00 | 0.00 | 0.00 | 29 | 1007.7 |
| 20260901085559 | 71 | 91 | 2.0 | 4.0 | 0.00 | 0.00 | 0.00 | 30 | 1007.8 |
| 20260901085102 | 71 | 150 | 1.0 | 4.0 | 0.00 | 0.00 | 0.00 | 30 | 1007.8 |
| 20260901084558 | 71 | 85 | 0.0 | 4.0 | 0.00 | 0.00 | 0.00 | 30 | 1007.8 |
| 20260901084056 | 70 | 110 | 1.0 | 3.0 | 0.00 | 0.00 | 0.00 | 32 | 1008.0 |
| 20260901083554 | 69 | 127 | 0.0 | 2.0 | 0.00 | 0.00 | 0.00 | 31 | 1008.0 |
| 20260901083054 | 69 | 97 | 0.0 | 2.0 | 0.00 | 0.00 | 0.00 | 34 | 1008.0 |
| 20260901082552 | 68 | 73 | 0.0 | 3.0 | 0.00 | 0.00 | 0.00 | 33 | 1008.0 |
| 20260901082050 | 66 | 62 | 1.0 | 3.0 | 0.00 | 0.00 | 0.00 | 35 | 1008.2 |
| 20260901081548 | 66 | 133 | 0.0 | 1.0 | 0.00 | 0.00 | 0.00 | 39 | 1008.2 |
| 20260901081046 | 65 | 132 | 0.0 | 1.0 | 0.00 | 0.00 | 0.00 | 40 | 1008.3 |
| 20260901080545 | 64 | 307 | 0.0 | 3.0 | 0.00 | 0.00 | 0.00 | 43 | 1008.4 |
| 20260901080045 | 64 | 307 | 0.0 | 3.0 | 0.00 | 0.00 | 0.00 | 46 | 1008.4 |
| 20260901075545 | 64 | 143 | 0.0 | 1.0 | 0.00 | 0.00 | 0.00 | 46 | 1008.4 |
| 20260901075044 | 64 | 144 | 0.0 | 2.0 | 0.00 | 0.00 | 0.00 | 47 | 1008.5 |
| 20260901074547 | 63 | 144 | 0.0 | 2.0 | 0.00 | 0.00 | 0.00 | 45 | 1008.4 |
| 20260901074042 | 63 | 150 | 0.0 | 2.0 | 0.00 | 0.00 | 0.00 | 52 | 1008.4 |
| 20260901073644 | 62 | 134 | 0.0 | 1.0 | 0.00 | 0.00 | 0.00 | 57 | 1008.5 |
| 20260901073041 | 63 | 134 | 0.0 | 0.0 | 0.00 | 0.00 | 0.00 | 58 | 1008.5 |
| 20260901072541 | 63 | 134 | 0.0 | 0.0 | 0.00 | 0.00 | 0.00 | 57 | 1008.5 |
| 20260901072041 | 62 | 134 | 0.0 | 0.0 | 0.00 | 0.00 | 0.00 | 58 | 1008.5 |
| 20260901071540 | 62 | 134 | 0.0 | 0.0 | 0.00 | 0.00 | 0.00 | 59 | 1008.5 |
| 20260901071039 | 62 | 134 | 0.0 | 0.0 | 0.00 | 0.00 | 0.00 | 59 | 1008.6 |
| 20260901070541 | 63 | 134 | 0.0 | 0.0 | 0.00 | 0.00 | 0.00 | 58 | 1008.6 |
| 20260901070049 | 62 | 134 | 0.0 | 0.0 | 0.00 | 0.00 | 0.00 | 56 | 1008.5 |
| 20260901065541 | 62 | 134 | 0.0 | 0.0 | 0.00 | 0.00 | 0.00 | 56 | 1008.6 |
| 20260901065038 | 62 | 134 | 0.0 | 0.0 | 0.00 | 0.00 | 0.00 | 55 | 1008.6 |
| 20260901064538 | 62 | 134 | 0.0 | 1.0 | 0.00 | 0.00 | 0.00 | 57 | 1008.7 |
| 20260901064038 | 61 | 134 | 0.0 | 2.0 | 0.00 | 0.00 | 0.00 | 57 | 1008.7 |
| 20260901063537 | 61 | 134 | 0.0 | 2.0 | 0.00 | 0.00 | 0.00 | 57 | 1008.7 |
| 20260901063038 | 61 | 127 | 0.0 | 2.0 | 0.00 | 0.00 | 0.00 | 59 | 1008.6 |
| 20260901062536 | 61 | 126 | 0.0 | 2.0 | 0.00 | 0.00 | 0.00 | 58 | 1008.6 |
| 20260901062035 | 62 | 138 | 0.0 | 0.0 | 0.00 | 0.00 | 0.00 | 60 | 1008.6 |
| 20260901061534 | 62 | 139 | 0.0 | 0.0 | 0.00 | 0.00 | 0.00 | 61 | 1008.7 |
| 20260901061032 | 62 | 137 | 0.0 | 1.0 | 0.00 | 0.00 | 0.00 | 61 | 1008.7 |
| 20260901060532 | 63 | 137 | 0.0 | 1.0 | 0.00 | 0.00 | 0.00 | 57 | 1008.8 |
| 20260901060030 | 63 | 136 | 0.0 | 1.0 | 0.00 | 0.00 | 0.00 | 53 | 1008.8 |
| 20260901055528 | 63 | 137 | 0.0 | 1.0 | 0.00 | 0.00 | 0.00 | 54 | 1008.8 |
| 20260901055028 | 63 | 136 | 0.0 | 1.0 | 0.00 | 0.00 | 0.00 | 55 | 1008.9 |
| 20260901054529 | 63 | 137 | 0.0 | 2.0 | 0.00 | 0.00 | 0.00 | 55 | 1009.0 |
| 20260901054030 | 63 | 141 | 0.0 | 2.0 | 0.00 | 0.00 | 0.00 | 55 | 1008.9 |
| 20260901053527 | 63 | 134 | 0.0 | 2.0 | 0.00 | 0.00 | 0.00 | 55 | 1008.8 |
| 20260901053027 | 63 | 129 | 0.0 | 2.0 | 0.00 | 0.00 | 0.00 | 54 | 1009.0 |
| 20260901052528 | 63 | 139 | 0.0 | 1.0 | 0.00 | 0.00 | 0.00 | 55 | 1009.1 |
| 20260901052027 | 64 | 139 | 0.0 | 1.0 | 0.00 | 0.00 | 0.00 | 55 | 1009.1 |
| 20260901051526 | 64 | 139 | 0.0 | 1.0 | 0.00 | 0.00 | 0.00 | 49 | 1009.2 |
| 20260901051026 | 65 | 139 | 0.0 | 1.0 | 0.00 | 0.00 | 0.00 | 50 | 1009.2 |
| 20260901050526 | 64 | 139 | 0.0 | 1.0 | 0.00 | 0.00 | 0.00 | 51 | 1009.3 |
| 20260901050026 | 64 | 139 | 0.0 | 0.0 | 0.00 | 0.00 | 0.00 | 52 | 1009.3 |
| 20260901045526 | 64 | 139 | 0.0 | 1.0 | 0.00 | 0.00 | 0.00 | 51 | 1009.3 |
| 20260901045025 | 66 | 139 | 0.0 | 1.0 | 0.00 | 0.00 | 0.00 | 51 | 1009.3 |
| 20260901044538 | 67 | 132 | 0.0 | 1.0 | 0.00 | 0.00 | 0.00 | 44 | 1009.2 |
| 20260901044025 | 67 | 325 | 0.0 | 1.0 | 0.00 | 0.00 | 0.00 | 39 | 1009.0 |
| 20260901043527 | 66 | 325 | 0.0 | 1.0 | 0.00 | 0.00 | 0.00 | 39 | 1009.1 |
| 20260901043025 | 66 | 325 | 0.0 | 0.0 | 0.00 | 0.00 | 0.00 | 49 | 1009.1 |
| 20260901042527 | 66 | 325 | 0.0 | 0.0 | 0.00 | 0.00 | 0.00 | 48 | 1008.9 |
| 20260901042024 | 66 | 325 | 0.0 | 0.0 | 0.00 | 0.00 | 0.00 | 48 | 1008.9 |
| 20260901041528 | 66 | 122 | 0.0 | 0.0 | 0.00 | 0.00 | 0.00 | 52 | 1008.9 |
| 20260901041025 | 66 | 125 | 0.0 | 1.0 | 0.00 | 0.00 | 0.00 | 51 | 1008.9 |
| 20260901040524 | 67 | 127 | 0.0 | 1.0 | 0.00 | 0.00 | 0.00 | 49 | 1008.8 |
| 20260901040024 | 68 | 123 | 0.0 | 0.0 | 0.00 | 0.00 | 0.00 | 45 | 1008.9 |
| 20260901035524 | 68 | 122 | 0.0 | 0.0 | 0.00 | 0.00 | 0.00 | 44 | 1008.8 |
| 20260901035022 | 68 | 146 | 0.0 | 0.0 | 0.00 | 0.00 | 0.00 | 48 | 1008.8 |
| 20260901034532 | 68 | 146 | 0.0 | 0.0 | 0.00 | 0.00 | 0.00 | 47 | 1008.8 |
| 20260901034026 | 69 | 147 | 0.0 | 0.0 | 0.00 | 0.00 | 0.00 | 46 | 1008.8 |
| 20260901033523 | 69 | 146 | 0.0 | 0.0 | 0.00 | 0.00 | 0.00 | 46 | 1008.8 |
| 20260901033044 | 68 | 146 | 0.0 | 0.0 | 0.00 | 0.00 | 0.00 | 45 | 1008.8 |
| 20260901032523 | 68 | 146 | 0.0 | 0.0 | 0.00 | 0.00 | 0.00 | 46 | 1008.7 |
| 20260901032022 | 69 | 146 | 0.0 | 0.0 | 0.00 | 0.00 | 0.00 | 47 | 1008.7 |
| 20260901031521 | 70 | 146 | 0.0 | 0.0 | 0.00 | 0.00 | 0.00 | 47 | 1008.6 |
| 20260901031020 | 70 | 146 | 0.0 | 0.0 | 0.00 | 0.00 | 0.00 | 46 | 1008.6 |
| 20260901030520 | 71 | 146 | 0.0 | 1.0 | 0.00 | 0.00 | 0.00 | 45 | 1008.6 |
| 20260901030027 | 72 | 146 | 0.0 | 4.0 | 0.00 | 0.00 | 0.00 | 44 | 1008.5 |
| 20260901025520 | 72 | 317 | 0.0 | 4.0 | 0.00 | 0.00 | 0.00 | 40 | 1008.5 |
| 20260901025020 | 72 | 134 | 0.0 | 2.0 | 0.00 | 0.00 | 0.00 | 43 | 1008.4 |
| 20260901024523 | 72 | 135 | 0.0 | 1.0 | 0.00 | 0.00 | 0.00 | 44 | 1008.5 |
| 20260901024020 | 72 | 135 | 0.0 | 1.0 | 0.00 | 0.00 | 0.00 | 44 | 1008.5 |
| 20260901023518 | 73 | 138 | 0.0 | 1.0 | 0.00 | 0.00 | 0.00 | 42 | 1008.5 |
| 20260901023019 | 74 | 135 | 0.0 | 1.0 | 0.00 | 0.00 | 0.00 | 41 | 1008.4 |
| 20260901022520 | 74 | 208 | 0.0 | 0.0 | 0.00 | 0.00 | 0.00 | 40 | 1008.5 |
| 20260901022019 | 75 | 209 | 0.0 | 0.0 | 0.00 | 0.00 | 0.00 | 39 | 1008.5 |
| 20260901021520 | 76 | 211 | 0.0 | 0.0 | 0.00 | 0.00 | 0.00 | 37 | 1008.5 |
| 20260901021017 | 78 | 211 | 0.0 | 0.0 | 0.00 | 0.00 | 0.00 | 36 | 1008.5 |
| 20260901020516 | 78 | 211 | 0.0 | 0.0 | 0.00 | 0.00 | 0.00 | 37 | 1008.7 |
| 20260901020016 | 79 | 211 | 0.0 | 0.0 | 0.00 | 0.00 | 0.00 | 34 | 1008.7 |
| 20260901015514 | 79 | 212 | 0.0 | 0.0 | 0.00 | 0.00 | 0.00 | 34 | 1008.7 |
| 20260901015014 | 80 | 211 | 0.0 | 0.0 | 0.00 | 0.00 | 0.00 | 35 | 1008.8 |
| 20260901014514 | 80 | 211 | 0.0 | 0.0 | 0.00 | 0.00 | 0.00 | 36 | 1008.8 |
| 20260901014014 | 80 | 211 | 0.0 | 0.0 | 0.00 | 0.00 | 0.00 | 33 | 1008.9 |
| 20260901013514 | 81 | 214 | 0.0 | 0.0 | 0.00 | 0.00 | 0.00 | 35 | 1008.9 |
| 20260901013014 | 82 | 214 | 0.0 | 0.0 | 0.00 | 0.00 | 0.00 | 32 | 1008.9 |
| 20260901012513 | 82 | 215 | 0.0 | 1.0 | 0.00 | 0.00 | 0.00 | 28 | 1008.9 |
| 20260901012012 | 83 | 215 | 0.0 | 1.0 | 0.00 | 0.00 | 0.00 | 27 | 1008.9 |
| 20260901011513 | 83 | 237 | 0.0 | 1.0 | 0.00 | 0.00 | 0.00 | 23 | 1008.8 |
| 20260901011011 | 83 | 201 | 0.0 | 1.0 | 0.00 | 0.00 | 0.00 | 24 | 1008.8 |
| 20260901010511 | 84 | 204 | 0.0 | 1.0 | 0.00 | 0.00 | 0.00 | 25 | 1008.8 |
| 20260901010017 | 84 | 204 | 0.0 | 1.0 | 0.00 | 0.00 | 0.00 | 23 | 1008.8 |
| 20260901005511 | 85 | 298 | 0.0 | 1.0 | 0.00 | 0.00 | 0.00 | 21 | 1008.7 |
| 20260901005009 | 85 | 205 | 0.0 | 1.0 | 0.00 | 0.00 | 0.00 | 22 | 1008.8 |
| 20260901004508 | 86 | 234 | 0.0 | 1.0 | 0.00 | 0.00 | 0.00 | 22 | 1009.0 |
| 20260901004007 | 86 | 288 | 0.0 | 2.0 | 0.00 | 0.00 | 0.00 | 19 | 1009.1 |
| 20260901003510 | 86 | 304 | 0.0 | 2.0 | 0.00 | 0.00 | 0.00 | 19 | 1009.1 |
| 20260901003012 | 87 | 290 | 0.0 | 4.0 | 0.00 | 0.00 | 0.00 | 18 | 1009.1 |
| 20260901002507 | 87 | 302 | 0.0 | 4.0 | 0.00 | 0.00 | 0.00 | 18 | 1009.3 |
| 20260901002005 | 87 | 307 | 0.0 | 2.0 | 0.00 | 0.00 | 0.00 | 17 | 1009.3 |
| 20260901001506 | 87 | 207 | 0.0 | 1.0 | 0.00 | 0.00 | 0.00 | 18 | 1009.5 |
| 20260901001004 | 87 | 207 | 0.0 | 3.0 | 0.00 | 0.00 | 0.00 | 18 | 1009.5 |
| 20260901000502 | 87 | 331 | 0.0 | 4.0 | 0.00 | 0.00 | 0.00 | 16 | 1009.6 |
| 20260901000006 | 87 | 321 | 1.0 | 4.0 | 0.00 | 0.00 | 0.00 | 15 | 1009.7 |
| 20260831235503 | 87 | 328 | 0.0 | 4.0 | 0.00 | 0.00 | 0.00 | 16 | 1009.8 |
| 20260831235100 | 87 | 285 | 0.0 | 3.0 | 0.00 | 0.00 | 0.00 | 16 | 1009.9 |
| 20260831234603 | 87 | 316 | 0.0 | 3.0 | 0.00 | 0.00 | 0.00 | 15 | 1009.9 |
| 20260831234059 | 88 | 290 | 0.0 | 4.0 | 0.00 | 0.00 | 0.00 | 15 | 1009.9 |
| 20260831233559 | 88 | 309 | 0.0 | 4.0 | 0.00 | 0.00 | 0.00 | 15 | 1009.9 |
| 20260831233101 | 88 | 237 | 0.0 | 3.0 | 0.00 | 0.00 | 0.00 | 16 | 1010.0 |
| 20260831232559 | 88 | 308 | 0.0 | 4.0 | 0.00 | 0.00 | 0.00 | 13 | 1010.0 |
| 20260831232100 | 89 | 314 | 1.0 | 4.0 | 0.00 | 0.00 | 0.00 | 13 | 1010.1 |
| 20260831231557 | 89 | 288 | 0.0 | 3.0 | 0.00 | 0.00 | 0.00 | 14 | 1010.1 |
| 20260831231055 | 89 | 308 | 0.0 | 5.0 | 0.00 | 0.00 | 0.00 | 15 | 1010.1 |
| 20260831230559 | 89 | 300 | 1.0 | 6.0 | 0.00 | 0.00 | 0.00 | 14 | 1010.2 |
| 20260831230054 | 90 | 328 | 1.0 | 4.0 | 0.00 | 0.00 | 0.00 | 13 | 1010.2 |
| 20260831225556 | 90 | 179 | 0.0 | 2.0 | 0.00 | 0.00 | 0.00 | 12 | 1010.2 |
| 20260831225053 | 90 | 297 | 0.0 | 3.0 | 0.00 | 0.00 | 0.00 | 13 | 1010.4 |
| 20260831224552 | 90 | 318 | 0.0 | 3.0 | 0.00 | 0.00 | 0.00 | 12 | 1010.5 |
| 20260831224054 | 90 | 276 | 0.0 | 2.0 | 0.00 | 0.00 | 0.00 | 11 | 1010.7 |
| 20260831223554 | 89 | 150 | 1.0 | 3.0 | 0.00 | 0.00 | 0.00 | 12 | 1010.7 |
| 20260831223056 | 89 | 127 | 0.0 | 3.0 | 0.00 | 0.00 | 0.00 | 10 | 1010.8 |
| 20260831222548 | 89 | 221 | 0.0 | 2.0 | 0.00 | 0.00 | 0.00 | 11 | 1010.9 |
| 20260831222048 | 89 | 328 | 0.0 | 4.0 | 0.00 | 0.00 | 0.00 | 11 | 1011.1 |
| 20260831221601 | 88 | 314 | 1.0 | 5.0 | 0.00 | 0.00 | 0.00 | 11 | 1011.1 |
| 20260831221046 | 89 | 307 | 2.0 | 4.0 | 0.00 | 0.00 | 0.00 | 11 | 1011.3 |
| 20260831220545 | 89 | 318 | 2.0 | 5.0 | 0.00 | 0.00 | 0.00 | 11 | 1011.5 |
| 20260831220044 | 90 | 314 | 2.0 | 4.0 | 0.00 | 0.00 | 0.00 | 11 | 1011.5 |
| 20260831215544 | 90 | 163 | 0.0 | 3.0 | 0.00 | 0.00 | 0.00 | 11 | 1011.7 |
| 20260831215042 | 89 | 136 | 0.0 | 2.0 | 0.00 | 0.00 | 0.00 | 11 | 1011.8 |
| 20260831214549 | 88 | 142 | 0.0 | 2.0 | 0.00 | 0.00 | 0.00 | 11 | 1011.9 |
| 20260831214041 | 88 | 136 | 1.0 | 2.0 | 0.00 | 0.00 | 0.00 | 13 | 1011.9 |
| 20260831213541 | 89 | 80 | 1.0 | 2.0 | 0.00 | 0.00 | 0.00 | 11 | 1012.0 |
| 20260831213040 | 89 | 136 | 0.0 | 2.0 | 0.00 | 0.00 | 0.00 | 11 | 1012.0 |
| 20260831212540 | 89 | 118 | 0.0 | 2.0 | 0.00 | 0.00 | 0.00 | 12 | 1012.1 |
| 20260831212038 | 89 | 150 | 0.0 | 3.0 | 0.00 | 0.00 | 0.00 | 13 | 1012.2 |
| 20260831211544 | 88 | 131 | 0.0 | 3.0 | 0.00 | 0.00 | 0.00 | 14 | 1012.3 |
| 20260831211034 | 88 | 307 | 0.0 | 3.0 | 0.00 | 0.00 | 0.00 | 12 | 1012.3 |
| 20260831210533 | 88 | 136 | 1.0 | 3.0 | 0.00 | 0.00 | 0.00 | 12 | 1012.5 |
| 20260831210034 | 87 | 144 | 0.0 | 4.0 | 0.00 | 0.00 | 0.00 | 13 | 1012.6 |
| 20260831205532 | 87 | 290 | 1.0 | 4.0 | 0.00 | 0.00 | 0.00 | 13 | 1012.7 |
| 20260831205032 | 86 | 143 | 0.0 | 4.0 | 0.00 | 0.00 | 0.00 | 12 | 1012.8 |
| 20260831204530 | 86 | 142 | 0.0 | 4.0 | 0.00 | 0.00 | 0.00 | 12 | 1013.0 |
| 20260831204032 | 86 | 332 | 1.0 | 3.0 | 0.00 | 0.00 | 0.00 | 12 | 1013.0 |
| 20260831203529 | 86 | 135 | 1.0 | 5.0 | 0.00 | 0.00 | 0.00 | 13 | 1013.1 |
| 20260831203039 | 86 | 205 | 2.0 | 5.0 | 0.00 | 0.00 | 0.00 | 13 | 1013.2 |
| 20260831202528 | 86 | 56 | 0.0 | 4.0 | 0.00 | 0.00 | 0.00 | 13 | 1013.2 |
| 20260831202029 | 86 | 153 | 1.0 | 5.0 | 0.00 | 0.00 | 0.00 | 13 | 1013.4 |
| 20260831201524 | 86 | 129 | 0.0 | 5.0 | 0.00 | 0.00 | 0.00 | 14 | 1013.4 |
| 20260831201022 | 85 | 131 | 0.0 | 3.0 | 0.00 | 0.00 | 0.00 | 15 | 1013.5 |
| 20260831200521 | 85 | 162 | 0.0 | 3.0 | 0.00 | 0.00 | 0.00 | 13 | 1013.5 |
| 20260831200026 | 85 | 125 | 0.0 | 5.0 | 0.00 | 0.00 | 0.00 | 15 | 1013.6 |
| 20260831195519 | 84 | 123 | 1.0 | 6.0 | 0.00 | 0.00 | 0.00 | 14 | 1013.7 |
| 20260831195017 | 83 | 133 | 0.0 | 2.0 | 0.00 | 0.00 | 0.00 | 16 | 1013.7 |
| 20260831194520 | 82 | 146 | 0.0 | 6.0 | 0.00 | 0.00 | 0.00 | 16 | 1013.9 |
| 20260831194015 | 81 | 349 | 0.0 | 6.0 | 0.00 | 0.00 | 0.00 | 18 | 1013.9 |
| 20260831193514 | 81 | 312 | 2.0 | 5.0 | 0.00 | 0.00 | 0.00 | 17 | 1013.9 |
| 20260831193016 | 82 | 318 | 0.0 | 3.0 | 0.00 | 0.00 | 0.00 | 19 | 1014.0 |
| 20260831192513 | 81 | 154 | 0.0 | 3.0 | 0.00 | 0.00 | 0.00 | 16 | 1014.1 |
| 20260831192015 | 81 | 313 | 1.0 | 3.0 | 0.00 | 0.00 | 0.00 | 15 | 1014.1 |
| 20260831191509 | 81 | 143 | 1.0 | 3.0 | 0.00 | 0.00 | 0.00 | 17 | 1014.2 |
| 20260831191009 | 80 | 37 | 0.0 | 3.0 | 0.00 | 0.00 | 0.00 | 17 | 1014.4 |
| 20260831190506 | 80 | 153 | 1.0 | 3.0 | 0.00 | 0.00 | 0.00 | 20 | 1014.5 |
| 20260831190009 | 79 | 133 | 0.0 | 3.0 | 0.00 | 0.00 | 0.00 | 21 | 1014.5 |
| 20260831185503 | 78 | 280 | 0.0 | 3.0 | 0.00 | 0.00 | 0.00 | 22 | 1014.7 |
| 20260831185003 | 77 | 318 | 0.0 | 3.0 | 0.00 | 0.00 | 0.00 | 20 | 1014.8 |
| 20260831184600 | 77 | 133 | 1.0 | 3.0 | 0.00 | 0.00 | 0.00 | 21 | 1014.9 |
| 20260831184100 | 76 | 150 | 0.0 | 3.0 | 0.00 | 0.00 | 0.00 | 21 | 1014.9 |
| 20260831183557 | 75 | 295 | 0.0 | 2.0 | 0.00 | 0.00 | 0.00 | 23 | 1015.0 |
| 20260831183100 | 74 | 307 | 0.0 | 3.0 | 0.00 | 0.00 | 0.00 | 23 | 1015.2 |
| 20260831182555 | 73 | 321 | 1.0 | 3.0 | 0.00 | 0.00 | 0.00 | 24 | 1015.3 |
| 20260831182053 | 73 | 332 | 0.0 | 2.0 | 0.00 | 0.00 | 0.00 | 26 | 1015.3 |
| 20260831181558 | 72 | 323 | 0.0 | 2.0 | 0.00 | 0.00 | 0.00 | 26 | 1015.4 |
| 20260831181049 | 71 | 148 | 0.0 | 3.0 | 0.00 | 0.00 | 0.00 | 27 | 1015.5 |
| 20260831180551 | 71 | 317 | 1.0 | 3.0 | 0.00 | 0.00 | 0.00 | 27 | 1015.6 |
| 20260831180056 | 70 | 124 | 0.0 | 4.0 | 0.00 | 0.00 | 0.00 | 28 | 1015.7 |
| 20260831175545 | 70 | 322 | 0.0 | 4.0 | 0.00 | 0.00 | 0.00 | 29 | 1015.7 |
| 20260831175046 | 69 | 330 | 1.0 | 4.0 | 0.00 | 0.00 | 0.00 | 28 | 1015.8 |
| 20260831174543 | 69 | 322 | 2.0 | 5.0 | 0.00 | 0.00 | 0.00 | 29 | 1015.8 |
| 20260831174043 | 68 | 319 | 3.0 | 5.0 | 0.00 | 0.00 | 0.00 | 30 | 1015.9 |
| 20260831173541 | 68 | 316 | 1.0 | 4.0 | 0.00 | 0.00 | 0.00 | 32 | 1015.9 |
| 20260831173038 | 68 | 314 | 1.0 | 4.0 | 0.00 | 0.00 | 0.00 | 32 | 1016.0 |
| 20260831172536 | 67 | 324 | 1.0 | 4.0 | 0.00 | 0.00 | 0.00 | 31 | 1016.0 |
| 20260831172035 | 67 | 339 | 2.0 | 4.0 | 0.00 | 0.00 | 0.00 | 32 | 1016.0 |
| 20260831171533 | 67 | 146 | 0.0 | 4.0 | 0.00 | 0.00 | 0.00 | 33 | 1016.0 |
| 20260831171032 | 66 | 157 | 1.0 | 4.0 | 0.00 | 0.00 | 0.00 | 33 | 1016.0 |
| 20260831170532 | 66 | 330 | 1.0 | 4.0 | 0.00 | 0.00 | 0.00 | 34 | 1016.1 |
| 20260831170031 | 66 | 326 | 0.0 | 4.0 | 0.00 | 0.00 | 0.00 | 34 | 1016.1 |
| 20260831165529 | 66 | 338 | 1.0 | 3.0 | 0.00 | 0.00 | 0.00 | 36 | 1016.1 |
| 20260831165027 | 65 | 322 | 0.0 | 3.0 | 0.00 | 0.00 | 0.00 | 36 | 1016.1 |
| 20260831164527 | 65 | 139 | 1.0 | 3.0 | 0.00 | 0.00 | 0.00 | 37 | 1016.1 |
| 20260831164025 | 65 | 289 | 0.0 | 2.0 | 0.00 | 0.00 | 0.00 | 39 | 1016.2 |
| 20260831163524 | 64 | 300 | 0.0 | 5.0 | 0.00 | 0.00 | 0.00 | 39 | 1016.3 |
| 20260831163024 | 63 | 316 | 1.0 | 6.0 | 0.00 | 0.00 | 0.00 | 39 | 1016.2 |
| 20260831162525 | 63 | 303 | 2.0 | 6.0 | 0.00 | 0.00 | 0.00 | 40 | 1016.3 |
| 20260831162019 | 62 | 321 | 1.0 | 6.0 | 0.00 | 0.00 | 0.00 | 40 | 1016.4 |
| 20260831161522 | 62 | 325 | 0.0 | 6.0 | 0.00 | 0.00 | 0.00 | 42 | 1016.3 |